Regional Weather Roundup
Issued by NWS

Home | Current Version | Previous Version | Text Only | Print | Product List | Glossary On
Versions: 1 2 3 4 5 6 7 8 9 10 11 12 13 14 15 16 17 18 19 20 21 22 23 24 25 26 27 28 29 30 31 32 33 34 35 36 37 38 39 40 41 42 43 44 45 46 47 48 49 50
000
ASUS44 KFWD 291215
RWRTX
NORTH TEXAS HOURLY WEATHER ROUNDUP
NATIONAL WEATHER SERVICE FORT WORTH TX
700 AM CDT MON MAY 29 2017

NOTE: "FAIR" INDICATES FEW OR NO CLOUDS BELOW 12,000 FEET WITH NO
SIGNIFICANT WEATHER AND/OR OBSTRUCTIONS TO VISIBILITY.

TXZ118-119-291300-
DALLAS/FORT WORTH METROPLEX

CITY           SKY/WX    TMP DP  RH WIND       PRES   REMARKS
DFW AIRPORT    MOCLDY    68  65  90 N9        29.96S
6HR MIN TEMP:  67; 6HR MAX TEMP:  74;

DALLAS LOVE    MOCLDY    69  61  75 CALM      29.98R
6HR MIN TEMP:  68; 6HR MAX TEMP:  74;

FTW MEACHAM    CLOUDY    67  62  84 NW5       29.98S
6HR MIN TEMP:  67; 6HR MAX TEMP:  73;

DAL-EXECUTIVE  CLOUDY    66  64  93 SW3       29.99R
6HR MIN TEMP:  65; 6HR MAX TEMP:  70;

FTW-ALLIANCE   CLOUDY    64  61  90 N5        29.99R
6HR MIN TEMP:  62; 6HR MAX TEMP:  68;

FTW-NAS-JRB    CLOUDY    67  63  87 W7        30.00R
6HR MIN TEMP:  67; 6HR MAX TEMP:  73;

FTW-SPINKS     CLEAR     64  63  94 CALM      30.02R
ARLINGTON      MOCLDY    66  63  90 SW3       30.00R
6HR MIN TEMP:  66; 6HR MAX TEMP:  70;

GRAND PRAIRIE  CLEAR     70  61  73 CALM      30.01R
ADDISON        CLEAR     68  59  73 N9        29.97F
MESQUITE       CLEAR     66  63  88 CALM      29.96S
LANCASTER      CLOUDY    67  64  88 CALM      30.01R
6HR MIN TEMP:  67; 6HR MAX TEMP:  69;

$$

TXZ091>094-102>105-117-120-121-131>134-291300-
NORTH CENTRAL TEXAS

CITY           SKY/WX    TMP DP  RH WIND       PRES   REMARKS
SHRMAN/DENISON CLOUDY    60  60  98 CALM      30.01F
6HR MIN TEMP:  60; 6HR MAX TEMP:  67;

GAINESVILLE    CLOUDY    62  58  88 N7        30.03F
6HR MIN TEMP:  60; 6HR MAX TEMP:  67;

BOWIE          CLOUDY    62  62 100 NW6       30.04R
6HR MIN TEMP:  60; 6HR MAX TEMP:  66;

BRIDGEPORT     CLOUDY    62  62 100 CALM      30.04R
6HR MIN TEMP:  59; 6HR MAX TEMP:  65;

DECATUR        CLOUDY    65  59  80 NW3       30.02R
6HR MIN TEMP:  65; 6HR MAX TEMP:  69;

DENTON         CLOUDY    62  62 100 NW5       29.99S
6HR MIN TEMP:  62; 6HR MAX TEMP:  67;

MCKINNEY       CLOUDY    64  62  93 N8        29.98S
6HR MIN TEMP:  62; 6HR MAX TEMP:  69;

BONHAM         CLOUDY    63  61  94 N5        29.99F
GREENVILLE     CLOUDY    64  63  94 CALM      29.99R
ROCKWALL       CLOUDY    65  63  91 NE7       29.97F
6HR MIN TEMP:  64; 6HR MAX TEMP:  71;

TERRELL        CLOUDY    67  62  84 NE5       29.98R
6HR MIN TEMP:  67; 6HR MAX TEMP:  72;

WAXAHACHIE     CLOUDY    66  66 100 CALM      30.01R
6HR MIN TEMP:  66; 6HR MAX TEMP:  69;

CLEBURNE       CLOUDY    66  66 100 NW6       30.03R FOG
GRANBURY       CLOUDY    65  63  92 SW5       30.03S
6HR MIN TEMP:  65; 6HR MAX TEMP:  70;

$$

TXZ083>090-098>101-113>116-127>130-139>142-154-155-291300-
WESTERN NORTH TEXAS

CITY           SKY/WX    TMP DP  RH WIND       PRES   REMARKS
WICHITA FALLS  CLOUDY    59  53  80 NW7       30.05R
6HR MIN TEMP:  59; 6HR MAX TEMP:  67;

WF-KICKAPOO    CLOUDY    64  56  76 N7        30.07S
6HR MIN TEMP:  64; 6HR MAX TEMP:  68;

VERNON         CLOUDY    61  46  57 CALM      30.08S
6HR MIN TEMP:  61; 6HR MAX TEMP: 102;

ABILENE        CLOUDY    61  59  93 CALM      30.08S
ABILENE-DYESS  CLOUDY    60  60  99 W5        30.07S
6HR MIN TEMP:  59; 6HR MAX TEMP:  64;

GRAHAM         CLOUDY    60  50  69 CALM      30.04R
6HR MIN TEMP:  59; 6HR MAX TEMP:  66;

BRECKENRIDGE   CLOUDY    62  61  95 CALM      30.06R
6HR MIN TEMP:  62; 6HR MAX TEMP:  67;

CISCO          CLOUDY    61  61 100 NW5       30.06F
EASTLAND       CLOUDY    62  61  97 NW3       30.05S
6HR MIN TEMP:  61; 6HR MAX TEMP:  65;

RANGER         CLOUDY    62  62  99 NW3       30.06S
MINERAL WELLS  CLOUDY    61  60  97 W5        30.01R
6HR MIN TEMP:  61; 6HR MAX TEMP:  67;

STEPHENVILLE   CLOUDY    65  62  93 NW3       30.06S
6HR MIN TEMP:  65; 6HR MAX TEMP:  69;

COMANCHE       CLOUDY    64  64 100 NW3       30.05S
6HR MIN TEMP:  64; 6HR MAX TEMP:  68;

BROWNWOOD      CLOUDY    64  64 100 NW3       30.05S
COLEMAN        CLOUDY    65  61  87 N5        30.06S
6HR MIN TEMP:  65; 6HR MAX TEMP:  69;

$$

TXZ143>147-156>162-174-175-291300-
CENTRAL TEXAS

CITY           SKY/WX    TMP DP  RH WIND       PRES   REMARKS
WACO           CLOUDY    71  70  96 N3        30.00R
6HR MIN TEMP:  68; 6HR MAX TEMP:  71;

WACO-MCGREGOR  CLOUDY    70  69  97 N3        30.01R
6HR MIN TEMP:  68; 6HR MAX TEMP:  70;

HILLSBORO        N/A     66  66  99 CALM      30.01R FOG
6HR MIN TEMP:  66; 6HR MAX TEMP:  72;

CORSICANA      CLOUDY    71  70  96 SW5       30.01R FOG
6HR MIN TEMP:  70; 6HR MAX TEMP:  72; 6HR PCP: TRACE;

MEXIA          CLOUDY    69  69  99 CALM      30.00R
6HR MIN TEMP:  68; 6HR MAX TEMP:  70; 6HR PCP:  0.01;

HEARNE         CLOUDY    68  68 100 N3        30.00R
6HR MIN TEMP:  67; 6HR MAX TEMP:  69;

CAMERON        CLOUDY    69  68  98 N3        29.99R
6HR MIN TEMP:  68; 6HR MAX TEMP:  70;

TEMPLE         CLOUDY    68  68 100 NW6       30.00R FOG
6HR MIN TEMP:  67; 6HR MAX TEMP:  70; 6HR PCP:  0.01;

KILLEEN        CLOUDY    68  68 100 N6        30.00R
6HR MIN TEMP:  67; 6HR MAX TEMP:  69; 6HR PCP: TRACE;

KILLEEN-SKYLRK CLOUDY    69  68  96 N8        30.01R FOG
6HR MIN TEMP:  67; 6HR MAX TEMP:  70;

FORT HOOD      CLOUDY    68  68 100 N9        29.98R FOG
6HR MIN TEMP:  66; 6HR MAX TEMP:  68;

HAMILTON       MOCLDY    66  66 100 N7        30.04R
6HR MIN TEMP:  66; 6HR MAX TEMP:  70;

LAMPASAS       CLOUDY    71  70  97 CALM      30.01R
6HR MIN TEMP:  68; 6HR MAX TEMP:  71; 6HR PCP:  0.01;

$$

TXZ095>097-106>112-122>126-135>138-148>153-164>167-291300-
EAST TEXAS

CITY           SKY/WX    TMP DP  RH WIND       PRES   REMARKS
PARIS          CLOUDY    63  57  82 N8        29.99R
6HR MIN TEMP:  63; 6HR MAX TEMP:  68;

SULPHUR SPRNGS CLOUDY    67  65  93 N6        30.00S
6HR MIN TEMP:  66; 6HR MAX TEMP:  71;

MOUNT PLEASANT CLOUDY    68  68 100 N6        29.97S
6HR MIN TEMP:  68; 6HR MAX TEMP:  70; 6HR PCP:  0.03;

GILMER           N/A     68  68  99 NW6       29.96R FOG
6HR MIN TEMP:  67; 6HR MAX TEMP:  68;

MINEOLA        CLOUDY    70  68  94 N3        29.96R
TYLER          FOG       70  70 100 N3        29.96R VSB 1
6HR MIN TEMP:  70; 6HR MAX TEMP:  71; 6HR PCP:  0.02;

LONGVIEW       NOT AVBL
MARSHALL       MOCLDY    65  63  93 CALM      29.97R
6HR MIN TEMP:  65; 6HR MAX TEMP:  66;

ATHENS         CLOUDY    68  68 100 CALM      29.98R FOG
PALESTINE      CLOUDY    68  68 100 CALM      30.00R FOG
JACKSONVILLE   CLOUDY    67  67 100 CALM      30.01R FOG
HENDERSON      CLOUDY   N/A N/A N/A S3        30.00R HAZE
                                      6HR PCP:  0.02;

CENTER         CLOUDY    70  68  95 CALM      30.00R FOG
6HR MIN TEMP:  70; 6HR MAX TEMP:  71;

NACOGDOCHES    CLOUDY    66  63  88 CALM      29.97R
6HR MIN TEMP:  64; 6HR MAX TEMP:  68; 6HR PCP:  0.10;

LUFKIN         CLOUDY    66  66 100 W3        29.99R
6HR MIN TEMP:  66; 6HR MAX TEMP:  68; 6HR PCP:  0.08;

$$

SUPPLEMENTAL OBSERVATIONS (NWS FORT WORTH AREA)

CITY           SKY/WX    TMP DP  RH WIND       PRES   REMARKS
DENISON DAM      N/A     70  64  83 NW8         N/A
CADDO GRASSLND   N/A     59  57  94 CALM        N/A
PAT MAYSE LAKE   N/A     61  59  94 N2          N/A
GREENVILLE       N/A     64  59  82 N6          N/A
CEDAR HILL       N/A     66  63  88 S2          N/A



USA.gov is the U.S. government's official web portal to all federal, state and local government web resources and services.